User: anonymous   Login
Location: Unspecified
(0.0000°N, 0.0000°E)
Time: 11:15:22
(UTC+00:00)
Language:

PCSat - Orbit

View from above orbital plane
View from above orbital plane
View from above satellite
View from above satellite

Ground track
Ground track

The orbit data is extracted from the following two-line orbital elements,

1 26931U 01043C   21170.76448994 -.00000043  00000-0  15164-4 0  9990
2 26931  67.0516 274.4723 0006394 261.1343  98.9034 14.30622241 29525
Epoch (UTC): 19 June 2021 18:20:51
Eccentricity: 0.0006394
inclination: 67.0516°
perigee height: 785 km
apogee height: 794 km
right ascension of ascending node: 274.4723°
argument of perigee: 261.1343°
revolutions per day: 14.30622241
mean anomaly at epoch: 98.9034°
orbit number at epoch: 2952

The dashed part of the orbit path shows where the satellite is in the earth's shadow,  

DLR